Location: Sky Ball
(34.0220°N, 86.6361°W)
Time: 05:53:53
(UTC+00:00)

Daily predictions for brighter satellites

Satellite Brightness Start Highest point End
(mag) Time Altitude Azimuth Time Altitude Azimuth Time Altitude Azimuth
Cosmos 909 Rocket 4.4 01:10:32 10° NNW 01:17:44 74° WSW 01:23:58 10° SSE
CZ-2C R/B 3.2 01:13:01 10° NNE 01:18:15 39° E 01:23:25 10° SSE
Cosmos 304 Rocket 4.2 01:14:15 10° S 01:18:42 40° ESE 01:23:10 10° NNE
ASTRO E2 2.9 01:15:29 10° W 01:19:23 57° S 01:23:16 10° ESE
Cosmos 676 Rocket 4.1 01:15:18 10° NNW 01:20:35 76° ENE 01:25:52 10° SSE
Cosmos 1943 Rocket 3.4 01:16:51 10° SE 01:20:43 20° E 01:24:38 10° NE
Resurs 01 Rocket 3.5 01:18:35 10° ESE 01:21:04 15° ENE 01:23:33 10° NNE
STARLINK-1124 4.1 01:19:00 10° NW 01:23:03 52° NE 01:27:06 10° ESE
Abrixas rocket 4.4 01:23:25 10° NNW 01:25:14 15° NNE 01:27:04 10° ENE
Okean 3 3.5 01:22:00 10° S 01:26:15 66° E 01:30:31 10° NNE
STARLINK-1122 3.9 01:23:57 10° NW 01:28:02 58° NE 01:32:07 10° ESE
H-2A R/B 2.2 01:23:08 10° S 01:28:11 79° WSW 01:33:26 10° NNW
NOSS 2-2 (D) 3.0 01:25:23 10° SSW 01:28:59 70° ESE 01:32:35 10° NE
Meteor 1-4 Rocket 4.3 01:29:06 10° SSW 01:32:16 35° W 01:35:30 10° N
STARLINK-1126 3.8 01:28:35 10° NW 01:32:42 65° NE 01:36:43 10° SE
Orbus 7S 4.1 01:31:42 10° SW 01:34:04 27° SSE 01:37:53 10° ESE
SL-4 R/B 2.0 01:33:48 10° NW 01:36:30 41° WSW 01:38:59 10° S
Cosmos 1833 Rocket 2.7 01:31:18 10° NNW 01:36:56 87° WSW 01:42:33 10° SSE
STARLINK-1082 3.7 01:33:53 10° NW 01:38:01 73° NE 01:41:50 12° SE
BREEZE-M DEB 1.5 01:36:10 10° SW 01:38:26 89° SE 01:40:49 10° NE
STARLINK-1444 2.2 01:36:26 10° SW 01:38:27 64° NW 01:40:28 10° NE
STARLINK-1452 2.3 01:37:03 10° SW 01:39:05 62° NW 01:41:05 10° NE
FREGAT/IRIS 2.6 01:37:18 10° S 01:39:55 66° W 01:42:34 10° NNW
STARLINK-1450 2.4 01:38:21 10° SW 01:40:19 57° NW 01:42:15 10° NE
STARLINK-1436 (VISORSAT) 2.4 01:38:23 10° SW 01:40:22 57° NW 01:42:20 10° NE
STARLINK-1392 2.4 01:38:28 10° SW 01:40:26 57° NW 01:42:23 10° NE
STARLINK-1398 2.4 01:38:26 10° SW 01:40:26 58° NW 01:42:25 10° NE
STARLINK-1414 2.4 01:38:27 10° SW 01:40:27 57° NW 01:42:25 10° NE
STARLINK-1399 2.4 01:38:29 10° SW 01:40:27 57° NW 01:42:24 10° NE
STARLINK-1415 2.4 01:38:30 10° SW 01:40:27 57° NW 01:42:24 10° NE
STARLINK-1416 2.4 01:38:28 10° SW 01:40:27 57° NW 01:42:26 10° NE
STARLINK-1394 2.4 01:38:30 10° SW 01:40:28 57° NW 01:42:24 10° NE
STARLINK-1395 2.4 01:38:30 10° SW 01:40:28 57° NW 01:42:24 10° NE
STARLINK-1393 2.4 01:38:30 10° SW 01:40:28 57° NW 01:42:25 10° NE
STARLINK-1408 2.4 01:38:29 10° SW 01:40:28 57° NW 01:42:27 10° NE
STARLINK-1396 2.4 01:38:31 10° SW 01:40:28 57° NW 01:42:25 10° NE
STARLINK-1397 2.4 01:38:31 10° SW 01:40:29 57° NW 01:42:25 10° NE
STARLINK-1401 2.4 01:38:31 10° SW 01:40:29 57° NW 01:42:26 10° NE
STARLINK-1419 2.4 01:38:30 10° SW 01:40:30 57° NW 01:42:28 10° NE
STARLINK-1404 2.4 01:38:32 10° SW 01:40:30 57° NW 01:42:26 10° NE
STARLINK-1453 2.4 01:38:32 10° SW 01:40:31 57° NW 01:42:27 10° NE
STARLINK-1402 2.4 01:38:33 10° SW 01:40:31 56° NW 01:42:28 10° NE
STARLINK-1417 2.4 01:38:34 10° SW 01:40:31 56° NW 01:42:28 10° NE
STARLINK-1420 2.4 01:38:32 10° SW 01:40:32 57° NW 01:42:31 10° NE
STARLINK-1413 2.4 01:38:35 10° SW 01:40:32 56° NW 01:42:29 10° NE
STARLINK-1406 2.4 01:38:35 10° SW 01:40:33 56° NW 01:42:29 10° NE
STARLINK-1422 2.4 01:38:34 10° SW 01:40:33 57° NW 01:42:32 10° NE
STARLINK-1460 2.4 01:38:34 10° SW 01:40:34 57° NW 01:42:32 10° NE
STARLINK-1445 2.4 01:38:37 10° SW 01:40:35 56° NW 01:42:32 10° NE
STARLINK-1440 2.4 01:38:37 10° SW 01:40:35 56° NW 01:42:31 10° NE
STARLINK-1458 2.4 01:38:35 10° SW 01:40:35 57° NW 01:42:33 10° NE
STARLINK-1443 2.4 01:38:38 10° SW 01:40:36 56° NW 01:42:33 10° NE
STARLINK-1454 2.4 01:38:39 10° SW 01:40:36 56° NW 01:42:33 10° NE
STARLINK-1457 2.4 01:38:39 10° SW 01:40:37 56° NW 01:42:34 10° NE
STARLINK-1456 2.4 01:38:40 10° SW 01:40:38 56° NW 01:42:34 10° NE
STARLINK-1437 2.4 01:38:39 10° SW 01:40:38 57° NW 01:42:35 10° NE
STARLINK-1451 2.4 01:38:40 10° SW 01:40:38 56° NW 01:42:35 10° NE
STARLINK-1446 2.4 01:38:38 10° SW 01:40:38 57° NW 01:42:36 10° NE
STARLINK-1442 2.4 01:38:41 10° SW 01:40:39 56° NW 01:42:35 10° NE
STARLINK-1447 2.4 01:38:41 10° SW 01:40:41 57° NW 01:42:39 10° NE
STARLINK-1423 2.4 01:38:42 10° SW 01:40:41 57° NW 01:42:39 10° NE
STARLINK-1455 2.4 01:38:42 10° SW 01:40:41 57° NW 01:42:40 10° NE
STARLINK-1405 2.4 01:38:44 10° SW 01:40:41 56° NW 01:42:37 10° NE
STARLINK-1421 2.4 01:38:44 10° SW 01:40:41 56° NW 01:42:38 10° NE
STARLINK-1400 2.4 01:38:44 10° SW 01:40:42 56° NW 01:42:38 10° NE
STARLINK-1410 2.4 01:38:44 10° SW 01:40:42 56° NW 01:42:38 10° NE
STARLINK-1441 2.4 01:38:42 10° SW 01:40:42 57° NW 01:42:41 10° NE
STARLINK-1407 2.4 01:38:45 10° SW 01:40:42 56° NW 01:42:39 10° NE
STARLINK-1439 2.4 01:38:45 10° SW 01:40:43 56° NW 01:42:39 10° NE
STARLINK-1448 2.4 01:38:44 10° SW 01:40:43 57° NW 01:42:42 10° NE
STARLINK-1449 2.4 01:38:44 10° SW 01:40:43 57° NW 01:42:42 10° NE
STARLINK-1409 2.4 01:38:46 10° SW 01:40:44 56° NW 01:42:40 10° NE
STARLINK-1351 2.4 01:38:47 10° SW 01:40:45 56° NW 01:42:41 10° NE
STARLINK-1370 2.4 01:38:47 10° SW 01:40:45 56° NW 01:42:41 10° NE
STARLINK-1418 2.4 01:38:47 10° SW 01:40:45 56° NW 01:42:41 10° NE
STARLINK-1434 2.4 01:38:47 10° SW 01:40:45 56° NW 01:42:41 10° NE
STARLINK-1403 2.4 01:38:48 10° SW 01:40:46 56° NW 01:42:42 10° NE
Cosmos 1674 Rocket 4.3 01:36:51 10° SSE 01:40:47 34° E 01:44:46 10° NNE
STARLINK-1433 2.4 01:38:49 10° SW 01:40:47 56° NW 01:42:43 10° NE
STARLINK-1438 2.4 01:38:51 10° SW 01:40:48 56° NW 01:42:45 10° NE
STARLINK-1411 2.4 01:38:50 10° SW 01:40:48 56° NW 01:42:44 10° NE
STARLINK-1412 2.4 01:38:52 10° SW 01:40:52 56° NW 01:42:50 10° NE
Iridium 51 4.2 01:37:49 10° S 01:41:36 79° W 01:45:10 10° N
STARLINK-1100 3.6 01:38:50 10° NW 01:42:58 81° NE 01:46:35 13° SE
Cosmos 2297 3.7 01:39:20 10° SSW 01:45:00 85° ESE 01:50:45 10° NNE
NOSS 2-2 (E) 4.0 01:41:48 10° SW 01:45:17 51° WNW 01:48:54 10° NNE
COSMOS 2406 4.4 01:42:32 10° NW 01:47:53 41° WSW 01:53:12 10° S
STARLINK-1083 3.6 01:43:47 10° NW 01:47:56 90° SW 01:51:21 15° SE
Meteor 2-4 Rocket 4.1 01:42:43 10° SSW 01:48:01 65° W 01:53:21 10° N
Meteor 1-12 Rocket 4.3 01:43:55 10° N 01:49:34 63° E 01:55:17 10° SSE
STARLINK-29 2.8 01:47:09 10° SW 01:50:22 80° SE 01:53:36 10° NE
Cosmos 2279 Rocket 4.2 01:45:31 10° N 01:51:36 54° E 01:57:37 10° SSE
STARLINK-1125 3.6 01:48:46 10° NW 01:52:55 81° SW 01:56:09 16° SE
Cosmos 2369 Rocket 3.1 01:48:13 10° SSE 01:52:55 28° ESE 01:57:38 10° NE
Cosmos 2082 Rocket 2.2 01:47:18 10° NNW 01:53:01 76° ENE 01:58:17 12° SSE
Cosmos 1975 4.2 01:49:56 10° NNW 01:53:40 38° W 01:57:22 10° SSW
ISS -3.0 01:52:27 10° WNW 01:55:40 46° SW 01:58:06 16° SSE
USA 186 3.4 01:54:15 10° SSW 01:56:32 27° W 01:58:59 10° NW
STARLINK-1109 3.7 01:53:44 10° NW 01:57:52 72° SW 02:00:55 17° SE
STARLINK-1091 3.8 01:58:44 10° NW 02:02:50 64° SW 02:05:42 19° SSE
Cosmos 1378 4.3 02:02:56 20° ESE 02:04:09 24° E 02:07:10 10° NE
USA 267 4.1 01:58:35 10° SSE 02:04:43 42° SW 02:10:53 10° WNW
SJ-6B 3.6 02:01:19 10° S 02:04:53 46° W 02:08:30 10° NNW
H-2A ROCKET BODY 3.6 02:03:29 10° SSW 02:07:39 31° SE 02:20:41 10° E
STARLINK-1072 4.0 02:03:47 10° NW 02:07:50 56° SW 02:10:31 20° SSE
Sakura Rocket 4.3 02:03:10 10° W 02:08:29 48° S 02:13:42 18° ESE
Lacrosse 5 2.6 02:05:13 10° NW 02:10:02 46° WSW 02:13:58 15° SSE
STARLINK-1096 4.2 02:08:45 10° NW 02:12:46 50° SW 02:15:16 21° SSE
ATLAS 2AS CENTAUR R/B 3.3 02:08:35 10° S 02:15:50 43° ESE 02:23:14 10° NE
Meteor 1-23 Rocket 4.2 02:11:52 10° S 02:17:32 75° E 02:23:10 10° NNE
STARLINK-1079 4.4 02:13:49 10° WNW 02:17:45 44° SW 02:20:05 21° SSE
Cosmos 1066 Rocket 4.0 02:14:26 10° S 02:19:48 76° E 02:25:08 10° NNE
Cosmos 1092 Rocket 4.5 02:22:30 22° SE 02:25:46 39° E 02:31:23 10° NNE
STARLINK-52 4.2 02:22:44 10° WSW 02:25:48 43° NW 02:28:53 10° NNE
SAR-Lupe-2 4.1 02:22:32 10° NNE 02:25:53 36° E 02:26:18 34° ESE
STARLINK-1101 4.4 02:26:05 10° NNW 02:30:00 41° NE 02:31:43 27° E
COSMOS 2455 3.9 02:30:25 23° ESE 02:30:45 24° ESE 02:35:23 10° NE
H-2A R/B 4.1 02:28:48 10° SW 02:31:10 14° S 02:31:36 14° S
Milstar 3 Cent rocket 3.7 02:25:48 10° SW 02:32:37 47° SSE 02:46:28 10° E
STARLINK-1102 4.3 02:31:02 10° NNW 02:35:02 45° NE 02:36:32 31° E
Chunghua 1 4.5 02:31:14 10° W 02:35:05 90° N 02:36:25 39° E
Spot 2 Rocket 3.8 02:35:31 31° SE 02:37:33 49° ENE 02:42:23 10° N
USA 238 DEB 4.5 02:31:02 10° NNW 02:37:57 44° NE 02:42:03 24° ESE
USA 238 4.5 02:31:09 10° NNW 02:38:04 44° NE 02:42:09 24° ESE
GPS 2-04 Rocket1 2.8 02:36:37 10° W 02:39:55 44° SSW 02:40:07 43° S
Okean 1 Rocket 3.0 02:35:36 10° N 02:40:01 70° E 02:41:35 38° SSE
STARLINK-1111 4.1 02:36:00 10° NW 02:40:02 50° NE 02:41:19 36° E
SL-4 R/B 4.4 02:37:27 10° W 02:41:33 30° NNW 02:45:48 10° NNE
FALCON 9 DEB 3.8 02:38:20 10° WSW 02:41:40 55° NW 02:45:03 10° NE
STARLINK-1073 3.9 02:40:56 10° NW 02:45:00 56° NE 02:46:05 41° E
STARLINK-1379 4.5 02:48:53 31° ENE 02:48:53 31° ENE 02:51:13 10° NE
SPOT 5 4.2 02:46:23 25° E 02:47:41 27° ENE 02:52:08 10° NNE
IGS 5A 3.7 02:48:39 45° ESE 02:49:21 51° ENE 02:53:23 10° N
STARLINK-1121 3.8 02:45:51 10° NW 02:49:57 63° NE 02:50:51 48° E
STARLINK-1329 4.3 02:52:05 35° ENE 02:52:05 35° ENE 02:54:37 10° NE
SL-27 R/B 4.0 02:48:17 10° NNE 02:50:47 23° ENE 02:50:47 23° ENE
Cosmos 2263 4.1 02:48:43 21° S 02:52:26 68° ESE 02:58:00 10° NNE
ATLAS CENTAUR R/B 1.4 02:52:16 46° SSE 02:53:18 60° ESE 02:57:31 10° NE
Okean 2 3.3 02:54:12 57° SSE 02:54:52 69° E 02:59:00 10° NNE
STARLINK-1106 3.6 02:50:50 10° NW 02:54:58 70° NE 02:55:39 56° E
STARLINK-1362 4.0 02:56:04 45° ENE 02:56:04 45° ENE 02:59:01 10° NE
Terra 3.4 02:55:01 21° ENE 02:55:28 21° ENE 02:58:59 10° NNE
Resurs 01 Rocket 2.6 02:54:43 22° SSW 02:57:09 42° W 03:01:23 10° NNW
USA 245 3.8 02:58:45 33° N 02:58:45 33° N 03:00:16 10° N
STARLINK-1373 3.9 03:00:24 47° ENE 03:00:24 47° ENE 03:03:23 10° NE
ASTRO E2 3.9 02:56:02 10° W 02:58:52 29° SW 02:58:52 29° SW
STARLINK-1112 3.5 02:55:48 10° NW 02:59:57 78° NE 03:00:26 66° ESE
Abrixas rocket 3.1 02:58:03 10° WNW 03:00:09 40° W 03:00:09 40° W
APEX 4.4 02:56:22 10° SSW 03:03:08 83° WNW 03:08:47 10° NNE
Cosmos 1242 Rocket 3.7 03:04:40 33° NE 03:04:40 33° NE 03:07:04 10° NNE
STARLINK-1390 3.7 03:04:35 55° ENE 03:04:35 55° ENE 03:07:47 10° NE
Cosmos 1943 Rocket 3.2 02:58:47 10° SW 03:04:02 44° WNW 03:09:23 10° N
Cosmos 2026 Rocket 4.0 03:02:16 38° SSE 03:04:36 62° E 03:10:51 10° NNE
SPOT 1/Viking Rocket 3.5 03:03:35 48° SE 03:04:52 66° ENE 03:09:58 10° N
STARLINK-1128 3.4 03:00:46 10° NW 03:04:55 87° NE 03:05:13 76° SE
STARLINK-1365 3.4 03:07:35 72° SW 03:07:58 88° SE 03:12:00 10° NE
STARLINK-1113 3.4 03:05:46 10° NW 03:09:54 84° SW 03:10:00 82° S
STARLINK-1119 3.6 03:10:44 10° NW 03:14:47 74° WSW 03:14:47 74° WSW
CENTAUR R/B 3.7 03:07:32 10° NNW 03:15:32 49° NE 03:19:26 31° ESE
Cosmos 1766 3.3 03:13:08 10° N 03:17:08 78° W 03:17:08 78° W
Cosmos 1486 Rocket 4.4 03:12:33 10° N 03:17:39 47° ENE 03:18:10 46° E
STARLINK-1114 3.8 03:15:44 10° NW 03:19:34 64° WSW 03:19:34 64° WSW
Cosmos 1992 Rocket 3.8 03:21:20 63° S 03:22:07 78° ESE 03:27:19 10° NNE
ATLAS 3B R/B 4.3 03:17:18 10° N 03:22:35 23° NE 03:25:46 17° E
STARLINK-1338 3.8 03:23:32 64° NNW 03:23:32 64° NNW 03:27:15 10° NE
Cosmos 1656 Rocket 3.6 03:22:48 42° SSW 03:24:47 90° ESE 03:30:23 10° NNE
STARLINK-1130 (DARKSAT) 4.0 03:20:43 10° NW 03:24:21 55° W 03:24:21 55° W
Meteor 1-21 4.1 03:25:54 57° S 03:27:05 83° E 03:32:42 10° N
STARLINK-1084 4.3 03:25:44 10° NW 03:29:08 47° W 03:29:08 47° W
STARLINK-1371 4.1 03:31:19 53° NW 03:31:30 54° NW 03:35:23 10° NE
STARLINK-1341 4.3 03:35:17 48° WNW 03:35:38 49° NW 03:39:29 10° NE
NOSS 3-2 (C) 4.2 03:28:25 10° NNW 03:36:17 70° ENE 03:39:06 45° SE
Cosmos 2369 Rocket 3.7 03:31:39 10° SW 03:36:45 34° WNW 03:41:51 10° N
SL-8 R/B 3.9 03:32:43 10° WNW 03:37:06 63° WSW 03:37:06 63° WSW
NOSS 3-4 (A) 4.0 03:33:08 10° SW 03:38:52 53° NW 03:44:54 10° NNE
NOSS 3-4 (C) 4.0 03:33:13 10° SW 03:38:58 54° NW 03:45:00 10° NNE
ERS-1 Rocket 2.9 03:39:13 75° SW 03:39:30 79° WSW 03:44:34 10° NNW
STARLINK-1374 4.5 03:39:16 43° WNW 03:39:45 45° NW 03:43:33 10° NNE
Cosmos 1655 Rocket 4.2 03:40:04 49° E 03:40:14 50° E 03:46:14 10° NNE
ATLAS 3B CENTAUR R/B 3.3 03:24:57 10° W 03:40:25 59° SSW 03:42:24 49° SSE
OAO 1 4.4 03:37:53 10° W 03:43:25 89° N 03:43:39 83° E
Cosmos 1975 Rocket 4.4 03:42:41 29° WSW 03:43:46 34° W 03:47:47 10° NNW
BREEZE-M DEB (TANK) 3.5 03:35:02 10° NW 03:43:55 60° NNE 03:44:45 52° ENE
Cosmos 1025 Rocket 3.9 03:45:12 43° NNE 03:45:12 43° NNE 03:48:13 10° NNE
Cosmos 1470 4.2 03:51:55 10° N 03:54:15 35° N 03:54:15 35° N
Cosmos 1867 3.9 03:52:23 10° NNW 03:57:38 55° NE 03:57:38 55° NE
Cosmos 968 Rocket 3.5 03:53:08 10° NNW 03:57:51 75° NNW 03:57:51 75° NNW
ATLAS 5 CENTAUR R/B 3.1 03:51:11 10° SW 04:00:18 52° WNW 04:03:23 10° NNE
RESURS DK-1 4.3 04:08:27 24° NNE 04:08:27 24° NNE 04:10:08 10° NNE
ATLAS 2AS CENTAUR R/B 4.1 03:59:26 10° WSW 04:06:49 41° NW 04:14:18 10° NNE
COSMOS 2455 3.7 04:13:27 27° WSW 04:16:19 45° WNW 04:22:04 10° NNE
Cosmos 1953 4.2 04:12:52 10° N 04:14:45 26° N 04:14:45 26° N
Meteor 2-19 Rocket 4.4 04:22:19 81° NE 04:22:19 81° NE 04:28:10 10° N
Cosmos 1417 Rocket 4.5 04:17:02 10° N 04:23:23 74° W 04:23:35 73° WSW
Thor Agena Rocket 4.0 04:19:02 10° NNE 04:23:11 56° NNE 04:23:11 56° NNE
SPOT 5 4.3 04:25:37 32° W 04:25:37 32° W 04:30:16 10° NW
ATLAS CENTAUR R/B 4.4 04:30:24 10° WNW 04:32:28 13° NW 04:34:29 10° NNW
Terra 3.3 04:33:54 30° WNW 04:33:54 30° WNW 04:37:15 10° NNW
SeaSat 1 3.5 04:46:54 10° NNE 04:50:08 42° NNE 04:50:08 42° NNE
Cosmos 2297 Rocket 4.0 04:48:59 10° N 04:53:06 20° ENE 04:53:23 20° ENE
Cosmos 2315 Rocket 4.1 04:52:36 10° N 04:58:03 68° NNE 04:58:03 68° NNE
CENTAUR R/B 3.8 04:58:30 10° NW 05:06:16 40° WSW 05:06:37 40° WSW
Milstar 3 Cent rocket 4.4 05:01:48 10° W 05:12:46 71° S 05:37:30 10° E
Cosmos 1697 Rocket 4.4 05:15:47 24° ENE 05:15:47 24° ENE 05:18:25 10° NE
ATLAS 3B R/B 2.9 05:06:55 10° NW 05:13:00 64° WNW 05:13:00 64° WNW
Cosmos 2227 Rocket 3.4 05:25:50 10° N 05:30:28 35° NE 05:30:28 35° NE
Cosmos 1745 Rocket 4.3 05:50:15 60° NNE 05:50:15 60° NNE 05:55:13 10° N
FALCON 9 R/B 3.6 05:53:12 42° E 05:53:12 42° E 06:02:06 10° E
Lacrosse 4 Rocket 3.9 05:50:10 10° N 05:52:03 18° NNE 05:52:03 18° NNE
CZ-4C R/B 3.2 06:00:11 40° NNW 06:00:11 40° NNW 06:04:16 10° NNE
BREEZE M DEB (TANK) 4.4 06:06:26 62° SE 06:06:29 62° SE 06:28:45 10° NE
Cosmos 1980 Rocket 3.2 06:12:34 41° NE 06:12:34 41° NE 06:16:24 10° NNE
SJ 16-02 3.4 06:10:58 10° NNW 06:12:52 25° NNW 06:12:52 25° NNW
Cosmos 2369 4.4 06:21:00 51° NNW 06:21:00 51° NNW 06:25:22 10° NNE
Cosmos 2297 Rocket 3.5 06:31:58 10° NNW 06:35:10 32° NW 06:35:10 32° NW
Cosmos 1709 Rocket 4.1 06:38:36 67° NNW 06:38:36 67° NNW 06:43:58 10° N
USA 215 3.7 06:35:30 32° ESE 06:38:27 57° NE 06:44:50 10° NW
SL-16 R/B 4.0 06:39:30 24° E 06:41:43 30° ENE 06:46:55 10° N
Cosmos 1937 Rocket 4.4 06:41:59 10° NNW 06:45:38 46° NNW 06:45:38 46° NNW
SL-19 R/B 4.5 06:42:32 10° NNE 06:47:38 72° N 06:47:38 72° N
Cosmos 2322 Rocket 3.7 06:49:46 25° E 06:49:46 25° E 06:53:47 10° NE
Cosmos 2082 4.3 06:45:40 10° NNW 06:49:49 51° NNW 06:49:49 51° NNW
Cosmos 489 Rocket 4.5 06:53:15 77° NE 06:53:15 77° NE 06:59:04 10° NNE
Cosmos 2278 4.5 06:57:14 44° NW 06:57:14 44° NW 07:02:01 10° N
Cosmos 1697 Rocket 4.1 06:57:30 28° WNW 06:57:30 28° WNW 07:02:10 10° N
Cosmos 2285 Rocket 3.9 06:57:46 10° NNW 07:03:42 77° NW 07:03:42 77° NW
Resurs 1-4 Rocket 2.4 07:08:12 10° NNE 07:13:02 63° ENE 07:13:02 63° ENE
IRAS Rocket 4.4 07:15:35 63° NW 07:15:35 63° NW 07:20:19 10° NNW
Cosmos 2227 Rocket 4.0 07:10:13 10° NW 07:12:14 19° WNW 07:12:14 19° WNW
SL-16 R/B 2.3 07:24:07 67° E 07:24:07 67° E 07:29:39 10° NNE
Cosmos 2074 Rocket 3.8 07:24:26 81° SSW 07:24:46 86° W 07:31:05 10° N
Cosmos 836 Rocket 4.5 07:34:05 81° NNE 07:34:05 81° NNE 07:39:08 10° NNE
Cosmos 2298 Rocket 4.0 07:30:08 10° NNW 07:35:12 81° NNW 07:35:12 81° NNW
CZ-2D R/B 2.1 07:36:48 10° N 07:41:49 66° WNW 07:41:49 66° WNW
BREEZE-M DEB (TANK) 3.3 07:41:43 57° WNW 07:42:12 61° NNW 07:52:44 10° NE
Cosmos 2360 Rocket 2.9 07:46:14 38° SE 07:47:17 42° ESE 07:52:34 10° NE
Cosmos 2184 Rocket 4.1 07:48:41 54° W 07:49:07 55° W 07:55:10 10° N
Cosmos 2327 Rocket 4.4 07:50:48 61° SSW 07:51:56 77° W 07:58:20 10° N
Cosmos 1076 Rocket 3.7 07:55:10 66° E 07:55:10 66° E 07:59:24 10° NNE
Cosmos 1980 Rocket 4.0 07:54:20 17° WNW 07:55:15 18° WNW 07:58:59 10° NNW
Cosmos 1892 3.4 07:56:58 53° NE 07:56:58 53° NE 08:00:00 10° NNE
Cosmos 1610 Rocket 4.4 07:57:00 60° SW 07:58:02 72° W 08:04:12 10° N
Cosmos 2333 Rocket 4.4 07:55:20 11° SE 07:58:27 17° E 08:02:01 10° ENE
CRYOSAT 2 4.2 07:55:09 10° N 08:00:02 73° W 08:00:05 73° W
STARLINK-1008 4.3 08:01:34 46° E 08:01:34 46° E 08:04:58 10° NE
STARLINK-24 4.0 08:01:58 59° ENE 08:01:58 59° ENE 08:05:18 10° NE
IRIDIUM 103 4.4 08:00:37 57° SSE 08:01:38 75° E 08:06:50 10° N
CBERS-1 3.9 07:56:46 10° NNE 08:01:55 89° WNW 08:02:33 69° SSW
Cosmos 1869 3.7 07:59:10 10° N 08:02:21 59° N 08:02:21 59° N
Timation 1 Rocket 4.3 07:59:44 10° NNW 08:05:32 55° WSW 08:05:50 54° WSW
Cosmos 2219 Rocket 4.3 08:02:25 11° SE 08:05:43 19° E 08:09:28 10° ENE
STARLINK-1014 4.0 08:06:23 54° E 08:06:23 54° E 08:09:58 10° NE
Lacrosse 5 rocket 3.8 08:09:53 12° SE 08:10:19 12° ESE 08:11:56 10° E
STARLINK-1025 3.8 08:11:08 63° ESE 08:11:08 63° ESE 08:14:59 10° NE
STARLINK-25 3.9 08:14:07 50° NNE 08:14:07 50° NNE 08:16:48 10° NE
STARLINK-1017 3.6 08:15:54 74° ESE 08:15:54 74° ESE 08:19:58 10° NE
Cosmos 2263 Rocket 2.1 08:13:00 10° NNW 08:18:33 65° WSW 08:19:55 48° SSW
IRIDIUM 106 4.2 08:18:51 55° SSW 08:19:55 71° W 08:25:08 10° N
Cosmos 962 Rocket 4.4 08:18:03 43° SSW 08:20:15 83° W 08:26:28 10° N
STARLINK-1023 3.4 08:20:41 81° S 08:20:48 83° SE 08:24:57 10° NE
USA 215 4.0 08:22:46 31° WSW 08:22:46 31° WSW 08:27:22 10° WNW
Cosmos 2154 Rocket 4.4 08:21:54 39° WSW 08:23:19 46° W 08:29:17 10° N
ADEOS II 2.0 08:18:38 10° N 08:23:53 72° WNW 08:25:16 48° SW
CZ-4B R/B 4.4 08:19:36 10° N 08:24:22 35° WNW 08:25:12 33° W
SL-16 R/B 3.0 08:24:35 36° WSW 08:25:07 37° W 08:30:45 10° NNW
STARLINK-1007 3.4 08:25:30 76° SW 08:25:48 88° NW 08:29:57 10° NE
STARLINK-81 3.5 08:26:24 58° NW 08:26:24 58° NW 08:29:53 10° NE
STARLINK-54 3.8 08:28:09 48° NW 08:28:11 48° NW 08:31:42 10° NE
IDEFIX/ARIANE 42P 3.8 08:23:59 10° NNE 08:28:48 36° E 08:32:34 15° SSE
STARLINK-77 3.6 08:29:34 53° NW 08:29:37 53° NW 08:33:10 10° NE
STARLINK-1048 3.5 08:30:16 66° WSW 08:30:46 79° NW 08:34:55 10° NE
IRS-1D 4.0 08:26:38 10° N 08:31:35 45° WNW 08:32:45 38° WSW
Cosmos 2221 3.2 08:27:33 10° NNW 08:31:16 37° W 08:31:16 37° W
Cosmos 1408 2.5 08:31:51 66° WNW 08:31:51 66° WNW 08:35:28 10° N
Cosmos 1825 2.2 08:32:28 60° SSE 08:33:03 76° E 08:36:48 10° N
Cosmos 2322 Rocket 3.0 08:31:35 31° W 08:33:03 36° WNW 08:38:13 10° N
STARLINK-79 3.8 08:34:16 46° NW 08:34:32 47° NW 08:38:02 10° NNE
STARLINK-1049 3.6 08:35:03 57° WSW 08:35:45 71° NW 08:39:53 10° NE
STARLINK-78 3.9 08:35:49 43° WNW 08:36:08 44° NW 08:39:36 10° NNE
IRS-1C 4.1 08:31:02 10° N 08:36:20 68° WNW 08:38:18 39° SW
STARLINK-57 4.0 08:37:28 38° WNW 08:37:53 40° NW 08:41:19 10° NNE
STARLINK-49 4.0 08:38:56 39° WNW 08:39:23 41° NW 08:42:50 10° NNE
ARIANE 5 R/B 2.4 08:34:33 10° NNE 08:39:34 85° WNW 08:41:40 36° SSW
STARLINK-1051 3.8 08:39:48 48° W 08:40:42 63° NW 08:44:49 10° NE
STARLINK-27 4.0 08:40:31 37° WNW 08:41:01 40° NW 08:44:26 10° NNE
SL-24 DEB 4.3 08:37:44 10° N 08:42:20 77° E 08:44:43 28° S
STARLINK-74 4.1 08:42:04 35° WNW 08:42:38 38° NW 08:46:02 10° NNE
STARLINK-39 4.2 08:43:32 34° WNW 08:44:09 37° NW 08:47:32 10° NNE
STARLINK-31 4.3 08:45:04 32° WNW 08:45:45 35° NW 08:49:04 10° NNE
STARLINK-69 4.5 08:46:44 28° WNW 08:47:33 31° NW 08:50:46 10° NNE
Cosmos 2058 4.3 08:48:46 23° W 08:48:50 23° WNW 08:52:14 10° NNW
STARLINK-21 4.4 08:48:11 28° WNW 08:49:01 32° NW 08:52:17 10° NNE
Cosmos 1315 Rocket 4.4 08:46:54 10° NW 08:49:05 20° WNW 08:49:05 20° WNW
STARLINK-1028 4.1 08:49:23 36° W 08:50:41 51° NW 08:54:44 10° NE
Resurs 1-4 Rocket 4.1 08:50:14 10° NW 08:52:41 13° WNW 08:54:06 12° W
STARLINK-1010 4.3 08:52:24 31° W 08:53:58 46° NW 08:58:02 10° NNE
Delta 2 Rocket 4.4 08:52:38 29° SSW 08:54:49 38° S 09:00:18 10° ESE
Cosmos 2366 rocket 3.9 08:50:31 21° S 08:54:51 85° W 09:01:10 10° N
STARLINK-1021 4.2 08:54:13 31° W 08:55:43 46° NW 08:59:43 10° NNE
CZ-3A R/B 4.2 08:54:58 10° SSE 08:58:38 16° SE 09:05:42 10° E
STARLINK-1019 4.4 08:58:57 27° W 09:00:40 41° NW 09:04:37 10° NNE
MSX 4.5 08:55:25 10° NNE 09:01:01 53° E 09:06:35 10° S
CZ-4C R/B 4.0 08:57:43 10° SSE 09:01:13 49° ENE 09:04:45 10° N
GEOS 3 Rocket 3.7 08:56:20 10° SSE 09:01:19 52° WSW 09:06:26 10° NW
BREEZE-M TANK 3.5 09:00:19 23° S 09:01:42 30° SE 09:04:23 10° E
COBE Rocket 4.0 09:02:52 17° S 09:06:43 61° W 09:11:48 10° NNW
SL-16 R/B 4.1 09:05:59 12° W 09:08:37 15° NW 09:11:53 10° NNW
Spot 4 Rocket 4.1 09:04:35 10° N 09:09:39 61° WNW 09:12:58 21° SSW
COSMOS 2428 2.9 09:06:24 16° S 09:10:58 69° ESE 09:16:37 10° NNE
STARLINK-1030 4.4 09:10:36 21° SSW 09:12:57 43° SE 09:16:54 10° ENE
Cosmos 1844 Rocket 3.0 09:07:53 10° NNW 09:13:28 71° ENE 09:19:00 10° SSE
Cosmos 1818 4.0 09:10:05 16° S 09:14:22 57° ESE 09:19:42 10° NE
Cosmos 1408 Rocket 3.5 09:11:56 15° S 09:15:26 86° E 09:19:46 10° N
USA 229 DEB 4.3 09:09:14 10° NW 09:16:09 42° WSW 09:23:14 10° S
USA 229 4.3 09:09:20 10° NW 09:16:15 42° WSW 09:23:22 10° S
STARLINK-1020 4.2 09:15:24 21° SSW 09:17:55 49° SE 09:21:56 10° NE
Meteor 1-28 Rocket 3.5 09:16:04 21° SSW 09:18:10 44° W 09:21:46 10° NNW
Cosmos 1538 Rocket 4.4 09:15:42 21° SW 09:19:05 51° WNW 09:24:20 10° N
STARLINK-1052 4.0 09:20:10 20° SSW 09:22:53 55° SE 09:26:56 10° NE
STARLINK-60 2.9 09:20:53 10° NW 09:24:01 55° SW 09:27:08 10° SSE
CZ-2D R/B 4.3 09:20:29 10° N 09:24:25 36° WNW 09:27:01 19° SW
Cosmos 2098 4.3 09:22:45 17° S 09:25:02 82° W 09:28:46 10° N
NOSS 3-1 (A) 4.3 09:17:44 10° NW 09:25:33 55° WSW 09:34:09 10° S
SL-4 R/B 2.2 09:20:57 10° NW 09:25:40 69° SW 09:30:03 10° SE
Cosmos 1727 Rocket 4.0 09:19:47 10° N 09:25:59 89° E 09:32:10 10° S
SL-08 R/B 4.2 09:25:19 18° SW 09:27:45 28° W 09:31:43 10° NW
Cosmos 2360 Rocket 3.6 09:28:00 14° WSW 09:31:24 23° WNW 09:35:48 10° N
ERS-2 2.8 09:29:06 15° SSW 09:31:40 34° W 09:35:02 10° NNW
H-2A R/B 2.2 09:27:25 10° S 09:31:42 54° W 09:36:05 10° NNW
STARLINK-1444 2.2 09:30:06 10° NW 09:32:24 54° SW 09:34:51 10° SSE
Cosmos 1766 Rocket 4.4 09:30:07 18° SW 09:32:39 31° W 09:36:31 10° NNW
STARLINK-1033 3.7 09:29:45 17° SW 09:32:49 71° SE 09:36:57 10° NE
STARLINK-1452 2.2 09:30:43 10° NW 09:33:02 53° SW 09:35:28 10° SSE
Cosmos 1606 2.7 09:29:30 10° NNW 09:33:14 60° W 09:36:57 10° S
STARLINK-1450 2.2 09:31:40 10° NW 09:33:54 50° SW 09:36:17 10° SSE
STARLINK-1392 2.2 09:31:51 10° NW 09:34:06 50° SW 09:36:29 10° SSE
STARLINK-1415 2.2 09:31:52 10° NW 09:34:06 50° SW 09:36:29 10° SSE
STARLINK-1399 2.2 09:31:53 10° NW 09:34:07 50° SW 09:36:30 10° SSE
STARLINK-1394 2.2 09:31:53 10° NW 09:34:08 49° SW 09:36:31 10° SSE
STARLINK-1395 2.2 09:31:54 10° NW 09:34:08 49° SW 09:36:31 10° SSE
STARLINK-1393 2.2 09:31:54 10° NW 09:34:08 49° SW 09:36:31 10° SSE
STARLINK-1401 2.2 09:31:54 10° NW 09:34:09 49° SW 09:36:32 10° SSE
STARLINK-1396 2.2 09:31:55 10° NW 09:34:09 49° SW 09:36:32 10° SSE
STARLINK-1397 2.2 09:31:55 10° NW 09:34:09 49° SW 09:36:32 10° SSE
STARLINK-1453 2.2 09:31:55 10° NW 09:34:09 49° SW 09:36:32 10° SSE
STARLINK-1404 2.2 09:31:56 10° NW 09:34:11 49° SW 09:36:34 10° SSE
STARLINK-1417 2.2 09:31:57 10° NW 09:34:12 49° SW 09:36:35 10° SSE
STARLINK-1402 2.2 09:31:58 10° NW 09:34:12 49° SW 09:36:35 10° SSE
STARLINK-1413 2.2 09:31:58 10° NW 09:34:13 49° SW 09:36:36 10° SSE
STARLINK-1406 2.2 09:31:59 10° NW 09:34:14 49° SW 09:36:37 10° SSE
STARLINK-1440 2.2 09:32:01 10° NW 09:34:15 49° SW 09:36:38 10° SSE
STARLINK-1414 2.3 09:32:00 10° NW 09:34:16 50° SW 09:36:41 10° SSE
STARLINK-1445 2.2 09:32:02 10° NW 09:34:16 49° SW 09:36:39 10° SSE
STARLINK-1443 2.2 09:32:02 10° NW 09:34:17 49° SW 09:36:40 10° SSE
STARLINK-1454 2.2 09:32:03 10° NW 09:34:17 49° SW 09:36:40 10° SSE
STARLINK-1416 2.3 09:32:01 10° NW 09:34:18 50° SW 09:36:43 10° SSE
STARLINK-1457 2.2 09:32:04 10° NW 09:34:18 49° SW 09:36:41 10° SSE
STARLINK-1408 2.3 09:32:02 10° NW 09:34:19 50° SW 09:36:43 10° SSE
STARLINK-1456 2.2 09:32:04 10° NW 09:34:19 49° SW 09:36:42 10° SSE
STARLINK-1451 2.2 09:32:05 10° NW 09:34:19 49° SW 09:36:42 10° SSE
STARLINK-1442 2.2 09:32:06 10° NW 09:34:20 49° SW 09:36:43 10° SSE
STARLINK-1436 (VISORSAT) 2.3 09:32:05 10° NW 09:34:21 50° SW 09:36:47 10° SSE
STARLINK-1419 2.3 09:32:06 10° NW 09:34:22 50° SW 09:36:48 10° SSE
STARLINK-1405 2.2 09:32:09 10° NW 09:34:23 49° SW 09:36:46 10° SSE
STARLINK-1421 2.2 09:32:09 10° NW 09:34:23 49° SW 09:36:46 10° SSE
STARLINK-1398 2.3 09:32:06 10° NW 09:34:24 50° SW 09:36:49 10° SSE
STARLINK-1410 2.2 09:32:09 10° NW 09:34:24 49° SW 09:36:47 10° SSE
STARLINK-1400 2.2 09:32:10 10° NW 09:34:24 49° SW 09:36:47 10° SSE
STARLINK-1407 2.3 09:32:10 10° NW 09:34:25 49° SW 09:36:48 10° SSE
STARLINK-1439 2.2 09:32:11 10° NW 09:34:25 49° SW 09:36:48 10° SSE
STARLINK-1409 2.3 09:32:11 10° NW 09:34:26 49° SW 09:36:49 10° SSE
STARLINK-1351 2.3 09:32:12 10° NW 09:34:27 49° SW 09:36:50 10° SSE
STARLINK-1370 2.3 09:32:12 10° NW 09:34:27 49° SW 09:36:50 10° SSE
STARLINK-1422 2.3 09:32:10 10° NW 09:34:27 50° SW 09:36:52 10° SSE
STARLINK-1418 2.3 09:32:13 10° NW 09:34:27 49° SW 09:36:50 10° SSE
STARLINK-1420 2.3 09:32:10 10° NW 09:34:27 50° SW 09:36:53 10° SSE
STARLINK-1434 2.3 09:32:13 10° NW 09:34:27 49° SW 09:36:50 10° SSE
STARLINK-1403 2.3 09:32:14 10° NW 09:34:28 49° SW 09:36:51 10° SSE
STARLINK-1460 2.3 09:32:13 10° NW 09:34:30 49° SW 09:36:55 10° SSE
STARLINK-1433 2.3 09:32:15 10° NW 09:34:30 49° SW 09:36:53 10° SSE
STARLINK-1411 2.3 09:32:17 10° NW 09:34:31 49° SW 09:36:54 10° SSE
STARLINK-1438 2.3 09:32:17 10° NW 09:34:32 49° SW 09:36:55 10° SSE
STARLINK-1458 2.3 09:32:16 10° NW 09:34:33 49° SW 09:36:58 10° SSE
STARLINK-1423 2.3 09:32:19 10° NW 09:34:36 49° SW 09:37:01 10° SSE
STARLINK-1446 2.3 09:32:20 10° NW 09:34:37 49° SW 09:37:02 10° SSE
STARLINK-1437 2.3 09:32:21 10° NW 09:34:38 49° SW 09:37:03 10° SSE
STARLINK-1447 2.3 09:32:24 10° NW 09:34:40 49° SW 09:37:06 10° SSE
STARLINK-1455 2.3 09:32:24 10° NW 09:34:41 49° SW 09:37:07 10° SSE
STARLINK-1441 2.3 09:32:25 10° NW 09:34:42 49° SW 09:37:08 10° SSE
STARLINK-1448 2.3 09:32:29 10° NW 09:34:46 49° SW 09:37:11 10° SSE
STARLINK-1449 2.3 09:32:30 10° NW 09:34:47 49° SW 09:37:12 10° SSE
STARLINK-1412 2.3 09:32:38 10° NW 09:34:55 49° SW 09:37:21 10° SSE
Cosmos 1151 Rocket 3.0 09:31:10 10° NNW 09:35:31 67° W 09:39:51 10° S
deb Chang Zheng 4 3.6 09:31:59 10° NNE 09:36:15 80° ESE 09:40:29 10° S
CZ-2C R/B 3.5 09:34:10 10° N 09:37:40 36° WNW 09:40:32 14° SW
STARLINK-1031 3.6 09:34:32 16° SW 09:37:47 79° SE 09:41:55 10° NE
SWARM A 4.2 09:35:01 10° N 09:38:20 87° W 09:41:39 10° S
SAR-Lupe-4 4.0 09:37:27 10° SSE 09:40:58 64° ENE 09:44:32 10° N
Cosmos 2333 Rocket 2.5 09:37:21 13° SW 09:42:11 52° WNW 09:47:42 10° N
STARLINK-1024 3.6 09:39:18 15° SW 09:42:45 88° SE 09:46:54 10° NE
Cosmos 1515 Rocket 3.6 09:39:52 10° N 09:44:13 82° E 09:48:33 10° S
STARLINK-1035 3.6 09:44:06 13° SW 09:47:43 83° NW 09:51:53 10° NE
Lacrosse 5 rocket 1.5 09:45:32 13° SW 09:49:05 57° NW 09:52:55 10° NNE
Cosmos 2219 Rocket 2.6 09:44:09 12° SW 09:49:12 48° WNW 09:54:36 10° N
Cosmos 2112 Rocket 4.1 09:47:01 10° SSW 09:52:16 84° ESE 09:57:34 10° NNE
STARLINK-1032 3.7 09:48:52 12° SW 09:52:42 74° NW 09:56:50 10° NE
BREEZE-M DEB (TANK) 3.3 09:47:52 10° WSW 09:53:08 52° NW 09:55:57 10° NE
Meteor 1-26 Rocket 4.4 09:47:35 10° N 09:53:31 81° W 09:59:30 10° S
STARLINK-1037 3.7 09:52:08 11° SW 09:56:05 67° NW 10:00:12 10° NE
STARLINK-29 2.9 09:53:13 10° NW 09:56:22 60° SW 09:59:28 10° SSE
SAR-Lupe-1 4.0 09:53:05 10° S 09:56:37 82° W 10:00:11 10° NNW
STARLINK-1011 3.8 09:53:39 10° SW 09:57:40 66° NW 10:01:47 10° NE
Cosmos 2344 3.6 09:50:32 10° SW 09:58:15 74° WNW 10:05:56 10° NNE
Cosmos 1633 2.7 09:55:08 10° SSW 09:58:37 53° W 10:02:10 10° N
BREEZE-M DEB (TANK) 4.5 09:56:56 10° NNW 09:59:42 32° NE 10:05:47 10° ESE
Shenzhou-11 Module 4.4 09:59:14 10° NNW 10:00:56 16° NNE 10:02:37 10° ENE
ATLAS 5 CENTAUR R/B 1.4 09:57:57 10° SW 10:01:56 69° WNW 10:06:17 10° NNE
CZ-2C R/B 2.6 09:57:02 10° N 10:02:14 80° WNW 10:07:22 10° SSW
STARLINK-1036 3.9 09:58:35 10° WSW 10:02:40 59° NW 10:06:45 10° NE
USA 32 4.1 09:59:00 10° SSW 10:04:09 60° W 10:09:20 10° N
Cosmos 1743 Rocket 3.9 10:01:04 10° SSW 10:05:19 49° W 10:09:34 10° N
STARLINK-1044 4.0 10:03:37 10° WSW 10:07:39 53° NW 10:11:43 10° NE
IDEFIX/ARIANE 42P 3.9 10:04:04 10° NNW 10:08:07 23° WNW 10:12:09 10° WSW
CZ-4B R/B 1.1 10:05:39 10° S 10:08:40 70° WSW 10:11:46 10° NNW
